Regional Weather Roundup
Issued by NWS Sterling, VA

Home | Current Version | Previous Version | Graphics & Text | Print | Product List | Glossary On
Versions: 1 2 3 4 5 6 7 8 9 10 11 12 13 14 15 16 17 18 19 20 21 22 23 24 25 26 27 28 29 30 31 32 33 34 35 36 37 38 39 40 41 42 43 44 45 46 47 48 49 50
000
ASUS41 KLWX 260810
RWRLWX

REGIONAL WEATHER ROUNDUP
NATIONAL WEATHER SERVICE BALTIMORE MD/WASHINGTON DC
300 AM EST SUN FEB 26 2017

Note: "FAIR" indicates few or no clouds below 12,000 feet
with no significant weather and/or obstructions to visibility.
 TC=TEMPERATURE CELSIUS

 * =Non NWS site. Station does not report precipitation (e.g. rain,
    snow, etc.), thunder, or fog.

DCZ001-MDZ009-015-VAZ040>042-051-053>054-260900-
WASHINGTON METRO

CITY           SKY/WX    TMP DP  RH WIND       PRES   REMARKS
WASHINGTON NAT MOCLDY    40  21  46 NW13G20   29.95R
DULLES         MOCLDY    36  17  46 NW18G26   29.95R WCI  26
ANDREWS AFB    PTCLDY    38  21  49 NW16      29.92R
FT BELVOIR     MOCLDY    40  21  46 NW23G29   29.94R
QUANTICO       MOCLDY    40  21  46 N14G29    29.96R
COLLEGE PARK*  MOCLDY    36  19  51 NW12      29.94R WCI  27
LEESBURG*      CLOUDY    37  25  60 MISG      29.97R
MANASSAS*      MOCLDY    37  21  52 NW17G25   29.96R WCI  27
GAITHERSBURG*  CLOUDY    36  18  48 NW16      29.96S WCI  26

$$

MDZ006>007-011-014-260900-
BALTIMORE METRO

CITY           SKY/WX    TMP DP  RH WIND       PRES   REMARKS
BWI AIRPORT    MOCLDY    37  22  54 W13G21    29.92R WCI  29
MD SCIENCE CTR   N/A     41  20  43 MISG      29.90R
MARTIN STATE   CLOUDY    39  27  60 W20G26    29.92R
ANNAPOLIS      CLEAR     41  23  48 NW10G21   29.92R
FORT MEADE*    CLOUDY    36  21  55 W14G23    29.95R WCI  27

$$

MDZ012-015-019>023-260900-
MARYLAND EASTERN SHORE

CITY           SKY/WX    TMP DP  RH WIND       PRES   REMARKS
OCEAN CITY     CLEAR     42  27  55 NW13G18   29.86R
SALISBURY      CLEAR     41  28  60 NW12      29.87R
BAY BRIDGE AP* CLEAR     39  23  52 NW17G23   29.92R
CAMBRIDGE*     CLEAR     43  25  49 NW13G22   29.90R
EASTON*        PTCLDY    41  24  50 N14G20    29.93R

$$

MDZ017>025-260900-
SOUTHERN MARYLAND

CITY           SKY/WX    TMP DP  RH WIND       PRES   REMARKS
PATUXENT RIVER CLEAR     42  27  55 NW24G33   29.90R
ST INIGOES     CLEAR     42  24  49 NW10      29.90R
LEONARDTOWN*   CLEAR     39  23  52 W10G16    29.93

$$

MDZ003>005-260900-
NORTH CENTRAL MARYLAND

CITY           SKY/WX    TMP DP  RH WIND       PRES   REMARKS
FREDERICK*     CLOUDY    36  23  60 W13       29.97R WCI  27
HAGERSTOWN APT CLOUDY    35  19  52 W20G25    29.93R WCI  24
WESTMINSTER*   MOCLDY    36  21  55 NW16G25   29.89S WCI  26

$$

MDZ501>502-260900-
WESTERN MARYLAND

CITY           SKY/WX    TMP DP  RH WIND       PRES   REMARKS
OAKLAND*       CLOUDY    19  12  73 W15G26    29.86S WCI   5
CUMBERLAND*    CLOUDY    32  14  47 NW7G16    30.02R

$$

VAZ025>031-260900-
SHENANDOAH VALLEY

CITY           SKY/WX    TMP DP  RH WIND       PRES   REMARKS
WINCHESTER*    CLOUDY    32  14  47 NW13G18   29.96R WCI  22
FRONT ROYAL*   PTCLDY    34  19  55 NW6       29.94R
LURAY*         PTCLDY    34  21  60 W8        29.94R WCI  27
NEW MARKET*    CLEAR     32  15  49 NE5       29.94R
STAUNTON*      PTCLDY    29  17  59 CALM      29.95R
WAYNESBORO*    PTCLDY    31  17  58 SW3       29.93R

$$

WVZ021-048>050-054>055-260900-
EASTERN WEST VIRGINIA PANHANDLE

CITY           SKY/WX    TMP DP  RH WIND       PRES   REMARKS
MARTINSBURG    CLOUDY    35  17  47 W21G26    29.94R WCI  24
PETERSBURG*    MOCLDY    33  18  53 W12G22    29.98R WCI  24

$$

VAZ036>039-050-260900-
CENTRAL FOOTHILLS

CITY           SKY/WX    TMP DP  RH WIND       PRES   REMARKS
CHARLOTTESVILL CLEAR     38  18  44 NW3       29.94R
CULPEPER*      MOCLDY    39  22  49 NW7       29.96S
ORANGE*        CLEAR     37  18  44 W8G17     29.96R
GORDONSVILLE*  CLEAR     37  22  54 CALM      29.95R
WARRENTON*     MOCLDY    39  20  46 NW10      29.95R

$$

VAZ055>057-260900-
NORTH AND CENTRAL PIEDMONT

CITY           SKY/WX    TMP DP  RH WIND       PRES   REMARKS
FREDERICKSBRG* CLEAR     40  25  54 NW7       29.94R
STAFFORD*      CLEAR     37  23  57 CALM      29.99R

$$

NCZ024-NYZ072-PAZ021-071-VAZ022-071-260900-
OTHER REGIONAL OBSERVATIONS

CITY           SKY/WX    TMP DP  RH WIND       PRES   REMARKS
NEW YORK CITY  CLOUDY    41  30  65 W9G20     29.77R
PHILADELPHIA   CLEAR     41  22  46 NW20G26   29.85R
PITTSBURGH     FLURRIES  27  17  66 W9        29.99R WCI  18
ROANOKE        PTCLDY    34  17  50 NW12      29.98R WCI  25
RICHMOND       CLEAR     43  22  43 NW10      29.93R
RALEIGH        CLEAR     44  16  32 VRB6      29.97R

$$

ANZ530>537-260900-
MARINE OBSERVATIONS

STATION/POSITION TIME  TEMP    WIND        PRES
                       AIR SEA DIR/SP/G
                 (UTC) (F)     (DEG/KT/KT) (MB)
THOMAS PT LIGHT  0800   40 44  300/ 20/ 23   N/A
BALT KEY BRIDGE  0748   40     290/ 22/ 24 1012.4R
COVE POINT       0748   42     340/ 17/ 21 1013.2R
LEWISETTA        0748   44 50  330/ 17/ 23 1012.7R
SOLOMONS ISLAND  0748   43 45  310/ 15/ 21   N/A
PINEY POINT      0748          350/ 24/ 26   N/A

$$




USA.gov is the U.S. government's official web portal to all federal, state and local government web resources and services.